Clinton, British Columbia

6:21 AM PDT on July 23, 2017 (GMT -0700)
Clinton

Weather History for CWCL - June, 2013

Change the Weather History Date:

Tuesday, June 4, 2013

  Actual Average Record
Temperature  
Mean Temperature 56 °F -  
Max Temperature 74 °F 65 °F 79 °F (2016)
Min Temperature 39 °F 41 °F 28 °F (2001)
Degree Days  
Heating Degree Days 8    
Growing Degree Days 6 (Base 50)    
Moisture  
Dew Point 38 °F    
Average Humidity 49    
Maximum Humidity 87    
Minimum Humidity 15    
Precipitation  
Precipitation 0.02 in - - ()
Sea Level Pressure  
Sea Level Pressure 30.09 in    
Wind  
Wind Speed 5 mph ()    
Max Wind Speed 12 mph    
Max Gust Speed 18 mph    
Visibility 9.0 miles    
Events      
Averages and records for this station are not official NWS values.
T = Trace of Precipitation, MM = Missing Value Source: Averaged Metar Reports

Daily Weather History Graph

Daily Weather History Graph

Search for Another Location

Airport or City:

Trip Planner

Search our weather history database for the weather conditions in past years. The results will help you decide how hot, cold, wet, or windy it might be!

Date:

Astronomy

Jun. 04, 2013 Rise Set
Actual Time 4:53 AM PDT 9:15 PM PDT
Civil Twilight 4:08 AM PDT 10:00 PM PDT
Nautical Twilight 3:01 AM PDT 11:08 PM PDT
Astronomical Twilight 1:36 AM PDT 12:32 AM PDT
Moon 2:50 AM PDT (6/4) 5:30 PM PDT (6/4)
Length of Visible Light 17h 52m
Length of Day
16h 21m
Waning Crescent, 13% of the Moon is Illuminated
Jun 4
Waning Crescent
Jun 8
New
Jun 16
First Quarter
Jun 23
Full
Jun 29
Last Quarter

Hourly Weather History & Observations

Time (PDT) Temp. Windchill Dew Point Humidity Pressure Visibility Wind Dir Wind Speed Gust Speed Precip Events Conditions
12:00 AM 42.8 °F - 35.6 °F 76% 30.13 in 9.0 mi Calm Calm - N/A   Clear
1:00 AM 41.0 °F - 35.6 °F 81% 30.14 in 9.0 mi Calm Calm - N/A   Clear
2:00 AM 40 °F - 35 °F 78% 30.14 in 9 mi South 2.3 mph - -  
2:00 AM 41.0 °F - 35.6 °F 81% 30.14 in 9.0 mi South 2.3 mph - N/A   Clear
3:00 AM 41.0 °F 38.0 °F 35.6 °F 81% 30.14 in 9.0 mi SW 4.6 mph - N/A   Clear
4:00 AM 39.2 °F 35.0 °F 35.6 °F 87% 30.14 in 9.0 mi SW 5.8 mph - N/A   Clear
5:00 AM 39 °F - 35 °F 80% 30.15 in 9 mi SW 4.6 mph - -  
5:00 AM 39.2 °F 35.9 °F 35.6 °F 87% 30.15 in 9.0 mi SW 4.6 mph - N/A   Clear
6:00 AM 42.8 °F 41.1 °F 37.4 °F 81% 30.15 in 9.0 mi South 3.5 mph - N/A   Clear
7:00 AM 48.2 °F - 41.0 °F 76% 30.14 in 9.0 mi South 3.5 mph - N/A   Clear
8:00 AM 51 °F - 41 °F 59% 30.15 in 9 mi South 5.8 mph - -  
8:00 AM 51.8 °F - 41.0 °F 67% 30.15 in 9.0 mi South 5.8 mph - N/A   Clear
9:00 AM 55.4 °F - 42.8 °F 63% 30.16 in 9.0 mi SSW 3.5 mph - N/A   Clear
10:00 AM 59.0 °F - 42.8 °F 55% 30.14 in 9.0 mi SSE 5.8 mph - N/A   Clear
11:00 AM 65 °F - 42 °F 32% 30.12 in 9 mi South 8.1 mph - -  
11:00 AM 64.4 °F - 42.8 °F 45% 30.12 in 9.0 mi South 11.5 mph - N/A   Partly Cloudy
11:58 AM 69.8 °F - 41.0 °F 35% 30.10 in 9.0 mi SSE 10.4 mph 18.4 mph N/A   Drizzle
11:59 AM 68.0 °F - 41.0 °F 37% 30.10 in 9.0 mi SSE 9.2 mph 18.4 mph N/A   Partly Cloudy
12:00 PM 69.8 °F - 41.0 °F 35% 30.11 in 9.0 mi SSE 9.2 mph 18.4 mph N/A   Partly Cloudy
12:07 PM 68.0 °F - 41.0 °F 37% 30.10 in 9.0 mi SSE 10.4 mph 18.4 mph N/A   Drizzle
12:10 PM 68.0 °F - 41.0 °F 37% 30.10 in 9.0 mi SSE 11.5 mph 18.4 mph N/A   Partly Cloudy
1:00 PM 69.8 °F - 41.0 °F 35% 30.09 in 9.0 mi South 8.1 mph 17.3 mph N/A   Partly Cloudy
2:00 PM 70 °F - 40 °F 23% 30.09 in 9 mi SSE 9.2 mph - -  
2:00 PM 69.8 °F - 41.0 °F 35% 30.09 in 9.0 mi South 6.9 mph - N/A   Partly Cloudy
3:00 PM 71.6 °F - 39.2 °F 31% 30.06 in 9.0 mi South 11.5 mph - N/A   Partly Cloudy
4:00 PM 71.6 °F - 39.2 °F 31% 30.05 in 9.0 mi South 6.9 mph - N/A   Partly Cloudy
5:00 PM 74 °F - 36 °F 15% 30.03 in 9 mi SW 6.9 mph - -  
5:00 PM 73.4 °F - 35.6 °F 25% 30.03 in 9.0 mi WSW 5.8 mph - N/A   Partly Cloudy
6:00 PM 71.6 °F - 35.6 °F 27% 30.02 in 9.0 mi SW 6.9 mph - N/A   Clear
7:00 PM 69.8 °F - 33.8 °F 27% 30.00 in 9.0 mi SW 4.6 mph - N/A   Clear
8:00 PM 67 °F - 36 °F 20% 29.99 in 9 mi WSW 6.9 mph - -  
8:00 PM 68.0 °F - 35.6 °F 30% 29.99 in 9.0 mi WSW 5.8 mph - N/A   Partly Cloudy
9:00 PM 62.6 °F - 35.6 °F 37% 29.99 in 9.0 mi West 6.9 mph - N/A   Clear
10:00 PM 60.8 °F - 35.6 °F 39% 29.99 in 9.0 mi SW 4.6 mph - N/A   Clear
11:00 PM 56 °F - 37 °F 37% 30.00 in 9 mi WSW 5.8 mph - -  
11:00 PM 55.4 °F - 37.4 °F 51% 30.00 in 9.0 mi SW 4.6 mph - N/A   Clear